Window Rock, AZ

5:38 PM MST on January 21, 2017 (GMT -0700)
Window Rock

Weather History for KRQE - April, 2014

Change the Weather History Date:

Friday, April 11, 2014

  Actual Average Record
Temperature  
Mean Temperature 52 °F -  
Max Temperature 72 °F 63 °F 82 °F (1989)
Min Temperature 34 °F 30 °F 10 °F (1965)
Degree Days  
Heating Degree Days 12    
Growing Degree Days 2 (Base 50)    
Moisture  
Dew Point 4 °F    
Average Humidity 14    
Maximum Humidity 34    
Minimum Humidity 5    
Precipitation  
Precipitation 0.00 in - - ()
Sea Level Pressure  
Sea Level Pressure 29.89 in    
Wind  
Wind Speed 4 mph (SW)    
Max Wind Speed 16 mph    
Max Gust Speed 26 mph    
Visibility 10 miles    
Events      
Averages and records for this station are not official NWS values.
T = Trace of Precipitation, MM = Missing Value Source: NWS Daily Summary

Daily Weather History Graph

Daily Weather History Graph

Search for Another Location

Airport or City:

Trip Planner

Search our weather history database for the weather conditions in past years. The results will help you decide how hot, cold, wet, or windy it might be!

Date:

Astronomy

Apr. 11, 2014 Rise Set
Actual Time 6:48 AM MDT 7:46 PM MDT
Civil Twilight 6:22 AM MDT 8:12 PM MDT
Nautical Twilight 5:51 AM MDT 8:43 PM MDT
Astronomical Twilight 5:19 AM MDT 9:15 PM MDT
Moon 4:36 PM MDT (4/11) 4:38 AM MDT (4/11)
Length of Visible Light 13h 49m
Length of Day
12h 57m
Waxing Gibbous, 87% of the Moon is Illuminated
Apr 11
Waxing Gibbous
Apr 15
Full
Apr 22
Last Quarter
Apr 29
New
May 6
First Quarter

Hourly Weather History & Observations

Time (MDT) Temp. Windchill Dew Point Humidity Pressure Visibility Wind Dir Wind Speed Gust Speed Precip Events Conditions
12:53 AM 43.0 °F - 3.9 °F 20% 29.92 in 10.0 mi Calm Calm - N/A   Clear
1:53 AM 51.1 °F - 3.9 °F 15% 29.88 in 10.0 mi Calm Calm - N/A   Clear
2:53 AM 48.0 °F - 5.0 °F 17% 29.88 in 10.0 mi East 3.5 mph - N/A   Clear
3:53 AM 52.0 °F - 3.9 °F 14% 29.86 in 10.0 mi Calm Calm - N/A   Clear
4:53 AM 48.0 °F - 5.0 °F 17% 29.88 in 10.0 mi South 4.6 mph - N/A   Clear
5:53 AM 39.9 °F - 7.0 °F 26% 29.93 in 10.0 mi Calm Calm - N/A   Clear
6:53 AM 34.0 °F - 8.1 °F 34% 29.98 in 10.0 mi Calm Calm - N/A   Clear
7:53 AM 39.9 °F - 10.0 °F 29% 30.01 in 10.0 mi Calm Calm - N/A   Clear
8:53 AM 46.0 °F - 9.0 °F 22% 30.01 in 10.0 mi Calm Calm - N/A   Clear
9:53 AM 55.0 °F - 9.0 °F 16% 30.02 in 10.0 mi Calm Calm - N/A   Clear
10:53 AM 66.0 °F - 9.0 °F 11% 29.95 in 10.0 mi Variable 3.5 mph - N/A   Clear
11:53 AM 69.1 °F - -0.0 °F 6% 29.93 in 10.0 mi Variable 3.5 mph - N/A   Clear
12:53 PM 70.0 °F - -2.0 °F 6% 29.90 in 10.0 mi SW 16.1 mph 21.9 mph N/A   Clear
1:53 PM 69.1 °F - -2.0 °F 6% 29.87 in 10.0 mi WSW 10.4 mph 24.2 mph N/A   Clear
2:53 PM 71.1 °F - -2.9 °F 5% 29.84 in 10.0 mi WSW 12.7 mph 24.2 mph N/A   Clear
3:53 PM 68.0 °F - -8.0 °F 5% 29.83 in 10.0 mi WSW 15.0 mph 26.5 mph N/A   Clear
4:53 PM 69.1 °F - -0.0 °F 6% 29.81 in 10.0 mi WSW 13.8 mph - N/A   Clear
5:53 PM 68.0 °F - -0.0 °F 7% 29.83 in 10.0 mi West 13.8 mph 23.0 mph N/A   Partly Cloudy
6:53 PM 66.9 °F - -2.9 °F 6% 29.85 in 10.0 mi WSW 16.1 mph 26.5 mph N/A   Clear
7:53 PM 63.0 °F - 5.0 °F 10% 29.84 in 10.0 mi SW 8.1 mph - N/A   Partly Cloudy
8:53 PM 55.0 °F - 3.9 °F 13% 29.86 in 10.0 mi SSW 6.9 mph - N/A   Clear
9:53 PM 53.1 °F - 5.0 °F 14% 29.85 in 10.0 mi Calm Calm - N/A   Clear
10:53 PM 44.1 °F 41.5 °F 7.0 °F 22% 29.83 in 10.0 mi North 4.6 mph - N/A   Clear
11:53 PM 48.0 °F - 8.1 °F 20% 29.80 in 10.0 mi North - - N/A   Clear